SL-4 R/B (45938 NORAD) Tracking and Keplerian Element Data

This shows tracking and keplerian element data for the satellite.

Feedback or suggestion? Click here.




ElementValue
Catalog45938
NameSL-4 R/B
Epoch Orbit59
Epoch Day209.20457681
Epoch Year2020
RAAN148.1962
Inclination51.6492
Eccentricity7.53E-05
Argument of Perigee156.3779
Mean Anonmoly203.7854
Mean Motion16.50666307
Decay Rate0.17124151
L11 45938U 20050B 20209.20457681 .17124151 12688-4 17965-3 0 9994
L22 45938 51.6492 148.1962 0000753 156.3779 203.7854 16.50666307 595

Live tracking and technical data element details for SL-4 R/B (NORAD 45938). SL-4 R/B can be tracked NOW for your location showing map with azimuth and elevation plus other details from your city location.

Track the satellite on the map from your city or location and see movement details for azimuth, elevation, latitude, longitude, range, height, and movement on the map or in text.







IsCatalogInMostPopularTable: catalog: 45938, numindb: 3
Update: records affected: 1



GetName: 45938 SL-4 R/B

Hit Count: updated at: Fri, 14 Aug 2020 06:04:58 GMT